Location: Melizzano
(41.1500°N, 14.5000°E)
Time: 06:06:12
(UTC+00:00)

OBJECT-B - Pass Details

Date: 11 May 2021
Orbit: 414 x 423 km, 97.0° (Epoch: 05 June)

Event Time Altitude Azimuth Distance (km) Brightness Sun altitude
Exits shadow 19:40:55 - 204° (SSW) 2,276 4.3 -15.2°
Reaches altitude 10° 19:43:11 10° 224° (SW) 1,510 3.6 -15.5°
Maximum altitude 19:45:20 17° 266° (W) 1,176 3.6 -15.8°
Drops below altitude 10° 19:47:31 10° 308° (NW) 1,521 4.9 -16.1°
Sets 19:50:04 0° 331° (NNW) 2,393 6.1 -16.4°
